[[{"header":{"parameterUnit":"m.s-1","parameterCategory":1,"la1":30.2991,"la2":30.254,"lo1":-89.0895,"lo2":-89.0444,"dy":0.0017,"dx":0.0017,"nx":28,"ny":28,"refTime":"2025-08-23T03:00:00:Z","depth":0,"parameterNumber":2,"parameterNumberName":"U-component_of_WINDS"},"data":[0,0,0,0,0,0,0,0,0,0,0,0,0,0,0,0,0,0,0,0,0,0,0,0,0,0,0,0,0,0,0,0,0,0,0,0,0,0,0,0,0,0,0,0,0,0,0,0,0,0,0,0,0,0,0,0,0,0,1.0195,1.0196,0,1.0292,1.0293,1.0294,1.0297,1.0295,1.0294,1.0293,1.0397,1.0401,1.0405,0,0,0,0,0,0,0,0,0,0,0,0,0,1.0018,1.0021,1.0195,1.0196,1.0197,1.0291,1.0293,1.0294,1.0297,1.0295,1.0294,1.0292,1.0396,1.0401,1.0405,0,0,0,0,0,0,0,0,0,0,0,0,0,1.0103,1.0022,1.0195,1.021,1.0212,1.0291,1.0293,1.0295,1.0297,1.0295,1.0293,1.0292,1.0395,1.04,1.0406,1.0478,0,0,1.0424,1.0427,0,0,0,0,0,0,0,0,1.0098,1.0109,1.0206,1.0209,1.0212,1.028,1.0269,1.0356,1.0298,1.0265,1.0293,1.0291,1.036,1.0369,1.0391,1.0483,1.0488,1.0425,1.0428,1.0431,1.0432,0,0,0,0,0,0,0,1.0092,1.0105,1.0233,1.0208,1.0211,1.0214,1.0224,1.0285,1.0322,1.0268,1.0268,1.0279,1.0361,1.0385,1.0394,1.0489,1.0424,1.043,1.0433,1.0435,1.0647,1.0649,0,0,0,0,0,0,1.0082,1.01,1.023,1.0236,1.0149,1.0218,1.0229,1.026,1.0321,1.0328,1.0281,1.0279,1.0376,1.0387,1.0397,1.0487,1.0431,1.0436,1.0439,1.0645,1.0647,1.0649,0,0,0,0,0,0,1.0079,1.0094,1.0226,1.0168,1.0185,1.0223,1.0257,1.0263,1.0287,1.0331,1.0338,1.0298,1.0375,1.0389,1.0458,1.049,1.0439,1.0444,1.0642,1.0645,1.0648,1.0665,0,0,0,0,0,0,1.0073,1.0093,1.0119,1.0169,1.0188,1.0284,1.0259,1.0266,1.0296,1.0295,1.0349,1.0356,1.0375,1.0449,1.0464,1.0497,1.0449,1.0639,1.0643,1.0647,1.0662,1.0668,1.0674,0,0,0,0,0,1.0067,1.0121,1.012,1.0136,1.0222,1.0286,1.0297,1.0316,1.0299,1.0327,1.0355,1.0355,1.0484,1.0456,1.0473,1.0508,1.0637,1.0642,1.0647,1.0659,1.0667,1.0674,0,0,0,0,0,0,1.0076,1.0128,1.0128,1.0199,1.0238,1.0286,1.0322,1.0324,1.0369,1.0367,1.039,1.0402,1.0471,1.0496,1.0464,1.0582,1.0559,1.0567,1.0563,1.0571,1.0577,1.0569,1.0453,0,0,0,0,0,1.0085,1.0131,1.0175,1.0233,1.0253,1.0284,1.0312,1.0323,1.0365,1.0382,1.0415,1.0458,1.0508,1.0541,1.0589,1.0665,1.0678,1.0698,1.0704,1.0709,1.0716,1.0759,1.0769,1.0665,1.0665,1.0665,0,0,1.0107,1.0141,1.0169,1.0236,1.0267,1.0316,1.0298,1.035,1.0386,1.0391,1.0457,1.0483,1.0532,1.0605,1.0639,1.0629,1.0748,1.0715,1.0718,1.0723,1.0765,1.0775,1.0784,1.0668,1.0667,1.0667,0,0,1.0171,1.02,1.0253,1.0284,1.0332,1.0352,1.0364,1.0413,1.043,1.0497,1.0501,1.0546,1.0632,1.0666,1.0695,1.0772,1.0774,1.0788,1.082,1.0862,1.087,1.0878,1.0906,1.0916,1.0795,1.0795,1.0795,0,1.0192,1.0263,1.028,1.0332,1.0362,1.0366,1.0421,1.0451,1.0513,1.0534,1.0521,1.0629,1.0662,1.0744,1.0762,1.0785,1.0802,1.0782,1.0867,1.0875,1.0882,1.091,1.092,1.0796,1.0796,1.0796,1.0796,0,1.0288,1.0337,1.0374,1.0432,1.0466,1.0519,1.0545,1.0579,1.0587,1.0609,1.0678,1.0717,1.0774,1.0794,1.0804,1.0878,1.087,1.0862,1.084,1.0893,1.0919,1.093,1.0798,1.0797,1.0797,1.0797,0,0,1.036,1.0426,1.0439,1.0466,1.0518,1.0558,1.0611,1.0665,1.0694,1.0736,1.0783,1.0855,1.0848,1.0881,1.0894,1.093,1.099,1.0918,1.092,1.0931,1.1076,1.1082,1.1094,1.0991,1.0993,1.0995,1.1072,0,1.043,1.0524,1.0541,1.0624,1.0671,1.0675,1.0723,1.0761,1.0783,1.0828,1.0853,1.0904,1.089,1.091,1.0946,1.0975,1.102,1.097,1.1037,1.1039,1.1025,1.1108,1.1115,1.1186,1.1083,1.1084,1.1086,0,1.0525,1.0568,1.0655,1.0701,1.0722,1.0764,1.0815,1.0857,1.0901,1.0915,1.0951,1.096,1.1018,1.0992,1.1072,1.1038,1.1066,1.1085,1.1088,1.1096,1.1066,1.1119,1.1209,1.122,1.1102,1.1101,1.1099,0,1.057,1.065,1.0713,1.0735,1.0791,1.082,1.0845,1.0887,1.0919,1.0964,1.0985,1.1037,1.1066,1.1107,1.113,1.1109,1.121,1.1185,1.1224,1.1224,1.1246,1.1245,1.1343,1.1263,1.1263,1.1262,1.1262,0,1.0648,1.0701,1.0734,1.0772,1.0833,1.0852,1.0912,1.0937,1.0974,1.1019,1.1027,1.1069,1.1096,1.1143,1.1162,1.1226,1.1239,1.1253,1.1258,1.1253,1.1251,1.1273,1.1269,1.1265,1.1265,1.1264,1.1264,0,1.0709,1.0733,1.0801,1.0848,1.0861,1.0904,1.0944,1.0983,1.1005,1.1061,1.1076,1.1111,1.1167,1.1193,1.1262,1.1275,1.1349,1.135,1.1333,1.1335,1.1373,1.1369,1.1489,1.1506,1.1414,1.1415,1.1415,0,1.0757,1.0798,1.0848,1.0878,1.0903,1.0951,1.0983,1.1004,1.1038,1.1091,1.1124,1.1179,1.1224,1.1312,1.1345,1.1398,1.1401,1.1439,1.1409,1.1403,1.1403,1.14,1.1405,1.1445,1.1446,1.1447,1.1447,0,1.084,1.085,1.0895,1.0944,1.0982,1.1022,1.1062,1.1086,1.1114,1.1151,1.1207,1.1242,1.1312,1.1367,1.1422,1.145,1.1454,1.1456,1.1468,1.1464,1.1453,1.1461,1.1349,1.1454,1.1453,1.1453,1.1452,1.1452,1.0897,1.0934,1.0975,1.1025,1.1057,1.1094,1.1132,1.1159,1.1205,1.1263,1.1273,1.1332,1.1376,1.1451,1.148,1.1528,1.1519,1.1537,1.1541,1.1545,1.1547,1.1445,1.1538,1.1538,1.1538,1.1538,1.1537,0,1.0981,1.1008,1.1054,1.1108,1.1148,1.1146,1.1191,1.1225,1.1276,1.1316,1.136,1.1425,1.1478,1.1515,1.157,1.1601,1.1605,1.1615,1.1613,1.162,1.1551,1.1536,1.1611,1.1611,1.1611,1.1611,1.1611,1.1611,1.103,1.1092,1.1107,1.1186,1.1213,1.127,1.1295,1.133,1.1362,1.1433,1.1477,1.15,1.1539,1.1597,1.1646,1.1656,1.1676,1.1687,1.1697,1.1632,1.1625,1.1617,1.1603,1.1691,1.1691,1.1761,1.1762,1.1762]},{"header":{"parameterUnit":"m.s-1","parameterCategory":1,"la1":30.2991,"la2":30.254,"lo1":-89.0895,"lo2":-89.0444,"dy":0.0017,"dx":0.0017,"nx":28,"ny":28,"refTime":"2025-08-23T03:00:00:Z","depth":0,"parameterNumber":3,"parameterNumberName":"V-component_of_WINDS"},"data":[0,0,0,0,0,0,0,0,0,0,0,0,0,0,0,0,0,0,0,0,0,0,0,0,0,0,0,0,0,0,0,0,0,0,0,0,0,0,0,0,0,0,0,0,0,0,0,0,0,0,0,0,0,0,0,0,0,0,2.7014,2.7015,0,2.713,2.7131,2.7132,2.7149,2.7148,2.7147,2.7146,2.7261,2.7265,2.7269,0,0,0,0,0,0,0,0,0,0,0,0,0,2.6798,2.6802,2.7014,2.7015,2.7017,2.713,2.7131,2.7133,2.7149,2.7148,2.7147,2.7146,2.726,2.7265,2.7269,0,0,0,0,0,0,0,0,0,0,0,0,0,2.6901,2.6804,2.7013,2.7039,2.7042,2.7129,2.7131,2.7133,2.715,2.7148,2.7146,2.7145,2.7258,2.7264,2.727,2.7339,0,0,2.7289,2.7291,0,0,0,0,0,0,0,0,2.6895,2.6909,2.7033,2.7037,2.7041,2.7123,2.7097,2.7202,2.715,2.7109,2.7146,2.7144,2.7216,2.7226,2.7251,2.7345,2.735,2.7289,2.7293,2.7295,2.7297,0,0,0,0,0,0,0,2.6888,2.6904,2.706,2.7035,2.704,2.7041,2.7054,2.7117,2.717,2.7112,2.7114,2.7127,2.7218,2.7245,2.7254,2.7351,2.7289,2.7294,2.7298,2.7301,2.75,2.7501,0,0,0,0,0,0,2.6877,2.6898,2.7056,2.7063,2.6963,2.7046,2.7061,2.7099,2.7169,2.7179,2.7129,2.7128,2.7235,2.7247,2.7258,2.7339,2.7295,2.7301,2.7305,2.7498,2.75,2.7502,0,0,0,0,0,0,2.6872,2.6891,2.7051,2.6981,2.7001,2.7052,2.7094,2.7102,2.7129,2.7182,2.719,2.7147,2.7235,2.7249,2.7317,2.7343,2.7304,2.7309,2.7496,2.7499,2.7501,2.7504,0,0,0,0,0,0,2.6866,2.6889,2.6919,2.6981,2.7005,2.7112,2.7096,2.7105,2.714,2.7139,2.7201,2.721,2.7234,2.7308,2.7323,2.7351,2.7314,2.7494,2.7497,2.75,2.7502,2.7507,2.7511,0,0,0,0,0,2.6858,2.6916,2.692,2.6939,2.7043,2.7113,2.7126,2.7155,2.7142,2.7169,2.7202,2.7208,2.7338,2.7315,2.7332,2.7362,2.7492,2.7496,2.75,2.75,2.7506,2.751,0,0,0,0,0,0,2.6855,2.6925,2.693,2.701,2.7055,2.7116,2.7153,2.7161,2.721,2.7208,2.7239,2.7253,2.7318,2.7347,2.732,2.7429,2.7414,2.7421,2.7408,2.7414,2.7418,2.7409,2.7319,0,0,0,0,0,2.6864,2.6917,2.6974,2.7038,2.7061,2.7102,2.7134,2.7151,2.7199,2.7218,2.7257,2.7301,2.7351,2.7384,2.7434,2.7506,2.7517,2.7534,2.7538,2.7541,2.7547,2.7581,2.7588,2.7514,2.7514,2.7514,0,0,2.6882,2.6926,2.6958,2.7039,2.7076,2.7127,2.7119,2.7175,2.7212,2.7227,2.7293,2.7321,2.7373,2.7442,2.7474,2.7468,2.757,2.7546,2.7548,2.7552,2.7586,2.7593,2.7599,2.7516,2.7516,2.7516,0,0,2.6941,2.6982,2.7037,2.7074,2.7129,2.7156,2.7169,2.7227,2.7246,2.7313,2.7323,2.7366,2.7454,2.7488,2.7518,2.7582,2.7587,2.7597,2.7618,2.7651,2.7657,2.7663,2.7682,2.7689,2.7602,2.7602,2.7602,0,2.6956,2.7036,2.7065,2.7119,2.7151,2.7166,2.722,2.7253,2.7322,2.7343,2.7335,2.7441,2.7477,2.7551,2.7566,2.759,2.7603,2.759,2.7654,2.766,2.7665,2.7684,2.7691,2.7603,2.7603,2.7603,2.7603,0,2.7049,2.7104,2.7142,2.7206,2.7243,2.7297,2.733,2.7364,2.7376,2.7401,2.7465,2.7508,2.7564,2.7583,2.7597,2.7657,2.7651,2.7649,2.7634,2.7673,2.769,2.7698,2.7604,2.7604,2.7603,2.7603,0,0,2.7113,2.7189,2.7202,2.7229,2.7289,2.733,2.7382,2.7436,2.7462,2.7507,2.7549,2.7619,2.7615,2.7648,2.7664,2.7693,2.7736,2.7686,2.7688,2.7691,2.78,2.78,2.7809,2.7739,2.7741,2.7742,2.7794,0,2.7177,2.7271,2.7295,2.7374,2.7421,2.7433,2.7477,2.7516,2.754,2.7581,2.7607,2.7655,2.7648,2.7667,2.7696,2.7724,2.7757,2.7721,2.7775,2.7776,2.776,2.7819,2.7821,2.7869,2.7802,2.7803,2.7804,0,2.7265,2.731,2.7393,2.7441,2.7462,2.7502,2.755,2.7591,2.7633,2.7648,2.7681,2.7693,2.7743,2.7725,2.7791,2.7766,2.7789,2.7805,2.7807,2.7813,2.7792,2.7823,2.7885,2.7891,2.7816,2.7815,2.7814,0,2.7298,2.738,2.7439,2.7462,2.7521,2.7547,2.7572,2.7613,2.7642,2.7684,2.7702,2.7749,2.7774,2.7808,2.7831,2.7816,2.7893,2.7879,2.7904,2.7903,2.792,2.7919,2.7985,2.7938,2.7938,2.7937,2.7937,0,2.7365,2.7415,2.7454,2.749,2.7544,2.7569,2.7621,2.7646,2.7681,2.7719,2.7732,2.7767,2.7796,2.7834,2.7852,2.7901,2.7913,2.7924,2.7928,2.7922,2.792,2.7937,2.7933,2.7939,2.7939,2.7938,2.7938,0,2.7412,2.7441,2.7505,2.7553,2.7566,2.7603,2.7643,2.7677,2.7699,2.7747,2.776,2.7794,2.7839,2.7865,2.7922,2.7933,2.7987,2.7991,2.7973,2.7974,2.7997,2.7994,2.8075,2.8085,2.8033,2.8034,2.8034,0,2.7452,2.749,2.7541,2.7568,2.7593,2.7637,2.7666,2.769,2.7719,2.7766,2.7793,2.7838,2.7876,2.7946,2.7975,2.8016,2.802,2.8045,2.8026,2.8017,2.8016,2.8013,2.8015,2.8048,2.8048,2.8049,2.8049,0,2.7519,2.753,2.7572,2.7617,2.7651,2.7688,2.7725,2.7745,2.7774,2.7805,2.7851,2.788,2.7936,2.7979,2.8023,2.8045,2.8051,2.8054,2.8062,2.8056,2.8043,2.8047,2.7979,2.8053,2.8052,2.8052,2.8052,2.8052,2.7562,2.7594,2.7634,2.7679,2.7708,2.774,2.7772,2.7797,2.7836,2.7884,2.7895,2.7942,2.7977,2.8036,2.8059,2.8094,2.8089,2.8101,2.8104,2.8106,2.8105,2.8038,2.8102,2.8102,2.8102,2.8102,2.8102,0,2.7627,2.7652,2.7693,2.7742,2.7776,2.7778,2.7816,2.7844,2.7885,2.7918,2.7954,2.8003,2.8044,2.8074,2.8115,2.8136,2.8139,2.8146,2.8144,2.8148,2.8109,2.8097,2.8142,2.8142,2.8142,2.8142,2.8142,2.8142,2.7665,2.7718,2.7732,2.7798,2.7822,2.7868,2.7889,2.7917,2.7944,2.7998,2.8032,2.8051,2.8082,2.8124,2.816,2.8167,2.818,2.8186,2.8193,2.8156,2.8151,2.8147,2.8136,2.8189,2.8189,2.823,2.823,2.823]}]]